Tracking 31027 objects as of 19-Jul-2025
HD Live streaming from Space Station
objects crossing your sky now

SL-19 DEB

Track SL-19 DEB now!
10-day predictions


NORAD ID: 24679
Int'l Code: 1994-085Y
Perigee: 1,851.9 km
Apogee: 2,160.3 km
Inclination: 65.0 °
Period: 127.2 minutes
Semi major axis: 8377 km
RCS: 0.047 m2 (small)
Launch date: December 26, 1994
Source: Commonwealth of Independent States (former USSR) (CIS)
Launch site: TYURATAM MISSILE AND SPACE COMPLEX (TTMTR)

Note: This is SATELLITE DEBRIS
Your satellite tracking list
SL-12 R/B(AUX MOTOR)
Track 1 satellite(s)




NASA's NSSDC Master Catalog

Two Line Element Set (TLE):
1 24679U 94085Y   25197.39332550 -.00000039  00000-0  10395-3 0  9992
2 24679  64.9849  64.2627 0184051 174.2727 358.9306 11.32305608428171
Source of the keplerian elements: AFSPC